• In Netherlands
  • List of Countries
  • For 7 days
  • Water Temperature
  • Satellite Maps
  • Weather Map
  • Weather Widgets
  • user-avatar
    Login

    Hourly Weather Sumskiy

    Today, 22 July, Sunday

    Time Temperature Precipitation Wind Pressure Humidity
    00:00 +21°C° 0 mm 3 mps 751 mmHg 71%
    01:00 +20°C° 0 mm 3 mps 751 mmHg 72%
    02:00 +20°C° 0 mm 3 mps 750 mmHg 77%
    03:00 +21°C° 0 mm 4 mps 750 mmHg 77%
    04:00 +21°C° 0 mm 4 mps 750 mmHg 76%
    05:00 +21°C° 0 mm 5 mps 750 mmHg 76%
    06:00 +22°C° 0 mm 5 mps 750 mmHg 74%
    07:00 +23°C° 0 mm 5 mps 750 mmHg 71%
    08:00 +25°C° 0 mm 5 mps 750 mmHg 68%
    09:00 +25°C° 0 mm 5 mps 750 mmHg 68%
    10:00 +26°C° 0 mm 5 mps 750 mmHg 67%
    11:00 +26°C° 0 mm 5 mps 750 mmHg 66%
    12:00 +27°C° 0.3 mm 5 mps 750 mmHg 65%
    13:00 +27°C° 0.3 mm 5 mps 750 mmHg 63%
    14:00 +26°C° 0 mm 6 mps 750 mmHg 65%
    15:00 +27°C° 0 mm 6 mps 750 mmHg 63%
    16:00 +27°C° 0 mm 5 mps 750 mmHg 62%
    17:00 +27°C° 0 mm 5 mps 750 mmHg 61%
    18:00 +26°C° 0.5 mm 4 mps 750 mmHg 66%
    19:00 +25°C° 0.5 mm 4 mps 750 mmHg 71%
    20:00 +24°C° 0.5 mm 3 mps 750 mmHg 76%
    21:00 +22°C° 0.4 mm 3 mps 750 mmHg 80%
    22:00 +22°C° 0.4 mm 3 mps 750 mmHg 84%
    23:00 +21°C° 0.4 mm 3 mps 751 mmHg 88%

    Tomorrow, 23 July, Monday

    Time Temperature Precipitation Wind Pressure Humidity
    00:00 +20°C° 0.2 mm 3 mps 751 mmHg 91%
    01:00 +20°C° 0.2 mm 3 mps 751 mmHg 93%
    02:00 +19°C° 0.2 mm 3 mps 751 mmHg 95%
    03:00 +20°C° 0.1 mm 3 mps 751 mmHg 94%
    04:00 +20°C° 0.1 mm 3 mps 751 mmHg 94%
    05:00 +20°C° 0.1 mm 3 mps 751 mmHg 93%
    06:00 +21°C° 0.1 mm 3 mps 751 mmHg 89%
    07:00 +22°C° 0.1 mm 3 mps 752 mmHg 85%
    08:00 +24°C° 0.1 mm 3 mps 752 mmHg 81%
    09:00 +25°C° 0.4 mm 3 mps 752 mmHg 74%
    10:00 +26°C° 0.4 mm 3 mps 752 mmHg 68%
    11:00 +27°C° 0.4 mm 4 mps 752 mmHg 61%
    12:00 +28°C° 0.1 mm 4 mps 752 mmHg 59%
    13:00 +28°C° 0.1 mm 4 mps 752 mmHg 56%
    14:00 +28°C° 0.1 mm 4 mps 752 mmHg 54%
    15:00 +28°C° 0 mm 4 mps 752 mmHg 55%
    16:00 +28°C° 0 mm 4 mps 752 mmHg 56%
    17:00 +28°C° 0 mm 4 mps 752 mmHg 57%
    18:00 +27°C° 0 mm 3 mps 752 mmHg 64%
    19:00 +25°C° 0 mm 3 mps 752 mmHg 70%
    20:00 +24°C° 0 mm 3 mps 753 mmHg 76%
    21:00 +23°C° 0.1 mm 2 mps 753 mmHg 81%
    22:00 +21°C° 0.1 mm 2 mps 753 mmHg 86%
    23:00 +20°C° 0.1 mm 2 mps 753 mmHg 91%

    Day after tomorrow, 24 July, Tuesday

    Time Temperature Precipitation Wind Pressure Humidity
    00:00 +19°C° 0 mm 2 mps 753 mmHg 92%
    01:00 +19°C° 0 mm 2 mps 754 mmHg 93%
    02:00 +18°C° 0 mm 2 mps 754 mmHg 94%
    03:00 +19°C° 0 mm 2 mps 754 mmHg 91%
    04:00 +20°C° 0 mm 2 mps 754 mmHg 88%
    05:00 +20°C° 0 mm 2 mps 754 mmHg 85%
    06:00 +23°C° 0 mm 2 mps 754 mmHg 78%
    07:00 +24°C° 0 mm 2 mps 755 mmHg 71%
    08:00 +26°C° 0 mm 2 mps 755 mmHg 63%
    09:00 +27°C° 0.1 mm 2 mps 755 mmHg 59%
    10:00 +29°C° 0.1 mm 2 mps 755 mmHg 54%
    11:00 +30°C° 0.1 mm 2 mps 755 mmHg 49%
    12:00 +30°C° 0.3 mm 2 mps 755 mmHg 50%
    13:00 +29°C° 0.3 mm 3 mps 755 mmHg 51%
    14:00 +29°C° 0.3 mm 3 mps 755 mmHg 52%
    15:00 +29°C° 0.2 mm 3 mps 755 mmHg 52%
    16:00 +29°C° 0.2 mm 3 mps 755 mmHg 51%
    17:00 +29°C° 0.2 mm 3 mps 755 mmHg 50%
    18:00 +28°C° 0 mm 3 mps 755 mmHg 56%
    19:00 +26°C° 0 mm 2 mps 755 mmHg 63%
    20:00 +25°C° 0 mm 2 mps 755 mmHg 69%
    21:00 +24°C° 0 mm 2 mps 755 mmHg 71%
    22:00 +23°C° 0 mm 2 mps 756 mmHg 73%
    23:00 +20°C° 0 mm 2 mps 756 mmHg 75%

    25 July, Wednesday

    Time Temperature Precipitation Wind Pressure Humidity
    00:00 +20°C° 0 mm 2 mps 756 mmHg 75%
    01:00 +19°C° 0 mm 2 mps 756 mmHg 76%
    02:00 +18°C° 0 mm 2 mps 757 mmHg 76%
    03:00 +19°C° 0 mm 2 mps 757 mmHg 75%
    04:00 +19°C° 0 mm 2 mps 757 mmHg 74%
    05:00 +20°C° 0 mm 2 mps 757 mmHg 73%
    06:00 +21°C° 0 mm 2 mps 757 mmHg 68%
    07:00 +24°C° 0 mm 2 mps 757 mmHg 63%
    08:00 +26°C° 0 mm 2 mps 757 mmHg 57%
    09:00 +27°C° 0 mm 3 mps 757 mmHg 54%
    10:00 +28°C° 0 mm 3 mps 757 mmHg 50%
    11:00 +29°C° 0 mm 3 mps 757 mmHg 46%
    12:00 +29°C° 0 mm 3 mps 757 mmHg 44%
    13:00 +30°C° 0 mm 2 mps 757 mmHg 43%
    14:00 +30°C° 0 mm 2 mps 757 mmHg 42%
    15:00 +30°C° 0 mm 2 mps 757 mmHg 42%
    16:00 +30°C° 0 mm 2 mps 757 mmHg 43%
    17:00 +30°C° 0 mm 2 mps 757 mmHg 44%
    18:00 +28°C° 0 mm 2 mps 757 mmHg 51%
    19:00 +27°C° 0 mm 2 mps 757 mmHg 58%
    20:00 +25°C° 0 mm 2 mps 757 mmHg 65%
    21:00 +24°C° 0 mm 1 mps 757 mmHg 68%
    22:00 +23°C° 0 mm 1 mps 758 mmHg 71%
    23:00 +22°C° 0 mm 1 mps 758 mmHg 75%

    26 July, Thursday

    Time Temperature Precipitation Wind Pressure Humidity
    00:00 +21°C° 0 mm 1 mps 758 mmHg 77%
    01:00 +21°C° 0 mm 1 mps 758 mmHg 79%
    02:00 +21°C° 0 mm 1 mps 758 mmHg 81%
    03:00 +21°C° 0 mm 1 mps 758 mmHg 80%
    04:00 +22°C° 0 mm 1 mps 759 mmHg 79%
    05:00 +22°C° 0 mm 1 mps 759 mmHg 77%
    06:00 +24°C° 0 mm 1 mps 759 mmHg 72%
    07:00 +25°C° 0 mm 1 mps 759 mmHg 66%
    08:00 +27°C° 0 mm 2 mps 759 mmHg 60%
    09:00 +28°C° 0.2 mm 2 mps 759 mmHg 58%
    10:00 +29°C° 0.2 mm 2 mps 759 mmHg 55%
    11:00 +30°C° 0.2 mm 2 mps 759 mmHg 53%
    12:00 +30°C° 0.3 mm 2 mps 759 mmHg 54%
    13:00 +30°C° 0.3 mm 2 mps 759 mmHg 54%
    14:00 +30°C° 0.3 mm 3 mps 758 mmHg 55%
    15:00 +30°C° 0.4 mm 2 mps 758 mmHg 56%
    16:00 +29°C° 0.4 mm 2 mps 758 mmHg 58%
    17:00 +29°C° 0.4 mm 2 mps 758 mmHg 59%
    18:00 +28°C° 0.5 mm 2 mps 758 mmHg 64%
    19:00 +26°C° 0.5 mm 2 mps 758 mmHg 69%
    20:00 +25°C° 0.5 mm 2 mps 758 mmHg 75%
    21:00 +24°C° 0 mm 2 mps 759 mmHg 77%
    22:00 +23°C° 0 mm 2 mps 759 mmHg 78%
    23:00 +21°C° 0 mm 2 mps 759 mmHg 80%

    27 July, Friday

    Time Temperature Precipitation Wind Pressure Humidity
    00:00 +20°C° 0 mm 2 mps 759 mmHg 81%
    01:00 +21°C° 0 mm 1 mps 759 mmHg 82%
    02:00 +20°C° 0 mm 1 mps 759 mmHg 82%
    03:00 +21°C° 0 mm 1 mps 759 mmHg 81%
    04:00 +21°C° 0 mm 1 mps 760 mmHg 79%
    05:00 +22°C° 0 mm 1 mps 760 mmHg 77%
    06:00 +24°C° 0 mm 1 mps 760 mmHg 70%
    07:00 +26°C° 0 mm 1 mps 760 mmHg 62%
    08:00 +28°C° 0 mm 1 mps 760 mmHg 54%
    09:00 +29°C° 0 mm 1 mps 760 mmHg 48%
    10:00 +31°C° 0 mm 1 mps 760 mmHg 43%
    11:00 +32°C° 0 mm 1 mps 760 mmHg 37%
    12:00 +32°C° 0 mm 1 mps 760 mmHg 36%
    13:00 +33°C° 0 mm 1 mps 760 mmHg 34%
    14:00 +33°C° 0 mm 1 mps 760 mmHg 32%
    15:00 +33°C° 0 mm 1 mps 760 mmHg 34%
    16:00 +33°C° 0 mm 1 mps 760 mmHg 35%
    17:00 +32°C° 0 mm 1 mps 760 mmHg 36%
    18:00 +30°C° 0 mm 1 mps 760 mmHg 43%
    19:00 +28°C° 0 mm 1 mps 760 mmHg 51%
    20:00 +26°C° 0 mm 1 mps 761 mmHg 58%
    21:00 +25°C° 0.1 mm 1 mps 761 mmHg 62%
    22:00 +24°C° 0.1 mm 1 mps 761 mmHg 66%
    23:00 +23°C° 0.1 mm 1 mps 761 mmHg 71%
    Show more